AGROMETEOROLOŠKI PORTAL
Vinorodna pokrajina

Temelj dobrega kmetovanja.

Pregled podatkov za lokacijo Truške, meteorološka postaja 517688

Pregled senzorjev na lokaciji

ID Ime Zadnja
vrednost
Datum in čas
meritve
(lokalni čas)
Tip
senzorja
7612 Omočenost lista (1,5 m) (U) 0 U 16.4.2024 16:30 A730WET
7613 Padavine (mm) 0 mm 16.4.2024 16:30 Generic 0.2 mm
7611 Relativna zračna vlaga (2 m) (%RH) 45 %RH 16.4.2024 16:30 50YA
7610 Temperatura (2 m) (°C) 18,2 °C 16.4.2024 16:30 50YA

Pregled podatkov zadnjih 24 ur

Zap.
št.
Datum in čas
(lokalni čas)
Truške
Omočenost
lista
(1,5
m)
Padavine Relativna
zračna
vlaga
(2
m)
Temperatura
(2
m)
1 16.4.2024 16:30 0 0 45,3 18,2
2 16.4.2024 16:00 0 0 44,8 19,8
3 16.4.2024 15:30 0 0 49,4 19,7
4 16.4.2024 15:00 0 0 55,2 19,6
5 16.4.2024 14:30 0 0 58,1 19
6 16.4.2024 14:00 0 0 57,7 18,3
7 16.4.2024 13:30 0 0 57,5 16,9
8 16.4.2024 13:00 0 0 60,5 16,4
9 16.4.2024 12:30 0 0 63,6 16,2
10 16.4.2024 12:00 0 0 66,7 16,1
11 16.4.2024 11:30 0 0 71,9 15,7
12 16.4.2024 11:00 0 0 74,7 15,5
13 16.4.2024 10:30 0 0 76,2 15,4
14 16.4.2024 10:00 0 0 77,4 15,2
15 16.4.2024 09:30 0 0 77 14,9
16 16.4.2024 09:00 0 0 75,5 14,7
17 16.4.2024 08:30 0 0 74 14,4
18 16.4.2024 08:00 0 0 73,4 14,2
19 16.4.2024 07:30 0 0 73,5 14,1
20 16.4.2024 07:00 0 0 74,3 13,9
21 16.4.2024 06:30 0 0 75,3 13,8
22 16.4.2024 06:00 0 0 77,4 13,6
23 16.4.2024 05:30 0 0 78,3 13,6
24 16.4.2024 05:00 0 0 80,1 13,6
25 16.4.2024 04:30 0 0 82,6 13,6
26 16.4.2024 04:00 0 0 84,4 13,5
27 16.4.2024 03:30 0 0 83,6 13,5
28 16.4.2024 03:00 0 0 81,4 13,7
29 16.4.2024 02:30 0 0 80,2 13,9
30 16.4.2024 02:00 0 0 82,3 13,8
31 16.4.2024 01:30 0 0 83,2 13,9
32 16.4.2024 01:00 0 0 83,6 13,9
33 16.4.2024 00:30 0 0 80,9 14,1
34 16.4.2024 00:00 0 0 82,9 14,1
35 15.4.2024 23:30 0 0 85,4 14,1
36 15.4.2024 23:00 0 0 85,2 14,2
37 15.4.2024 22:30 0 0 83,8 14,5
38 15.4.2024 22:00 0 0 81,5 14,8
39 15.4.2024 21:30 0 0 77,7 15,3
40 15.4.2024 21:00 0 0 77,2 15,6
41 15.4.2024 20:30 0 0 74,4 16,2
42 15.4.2024 20:00 0 0 70,5 17,1
43 15.4.2024 19:30 0 0 69,1 18
44 15.4.2024 19:00 0 0 66,8 18,8
45 15.4.2024 18:30 0 0 63 19,5
46 15.4.2024 18:00 0 0 59,8 20,1